When you browse on this site, cookies collect data to enhance your experience and personalize the content and advertising you see.
Visit our Privacy Policy to learn more. By continuing to use the site, you agree to this use of cookies and data.
  • En España
  • Lista de países
  • Para 7 días
  • Temperatura del agua
  • El tiempo en el mapa
  • Informadores
  • user-avatar
    Iniciar sesión

    Tiempo cada hora Sharm el-Szeikh

    Hoy, 14 Diciembre, Sábado

    Tiempo Temperatura Precipitaciones Viento Presión Humedad
    00:00 +13°C° 0 mm 4 mps 757 mmHg 61%
    01:00 +13°C° 0 mm 4 mps 757 mmHg 63%
    02:00 +13°C° 0 mm 3 mps 757 mmHg 64%
    03:00 +13°C° 0 mm 3 mps 757 mmHg 64%
    04:00 +13°C° 0 mm 4 mps 757 mmHg 64%
    05:00 +13°C° 0 mm 4 mps 757 mmHg 65%
    06:00 +14°C° 0 mm 4 mps 757 mmHg 58%
    07:00 +17°C° 0 mm 4 mps 758 mmHg 50%
    08:00 +18°C° 0 mm 4 mps 758 mmHg 44%
    09:00 +20°C° 0 mm 4 mps 758 mmHg 40%
    10:00 +21°C° 0 mm 4 mps 758 mmHg 36%
    11:00 +22°C° 0 mm 5 mps 758 mmHg 32%
    12:00 +22°C° 0 mm 5 mps 757 mmHg 31%
    13:00 +23°C° 0 mm 5 mps 757 mmHg 30%
    14:00 +23°C° 0 mm 5 mps 756 mmHg 29%
    15:00 +21°C° 0 mm 5 mps 756 mmHg 32%
    16:00 +19°C° 0 mm 4 mps 756 mmHg 36%
    17:00 +17°C° 0 mm 3 mps 757 mmHg 40%
    18:00 +16°C° 0 mm 3 mps 757 mmHg 39%
    19:00 +16°C° 0 mm 3 mps 757 mmHg 38%
    20:00 +14°C° 0 mm 3 mps 758 mmHg 37%
    21:00 +14°C° 0 mm 3 mps 758 mmHg 37%
    22:00 +14°C° 0 mm 3 mps 758 mmHg 38%
    23:00 +14°C° 0 mm 3 mps 758 mmHg 39%

    Mañana, 15 Diciembre, Domingo

    Tiempo Temperatura Precipitaciones Viento Presión Humedad
    00:00 +14°C° 0 mm 3 mps 757 mmHg 40%
    01:00 +14°C° 0 mm 3 mps 757 mmHg 41%
    02:00 +14°C° 0 mm 3 mps 757 mmHg 42%
    03:00 +13°C° 0 mm 3 mps 757 mmHg 45%
    04:00 +13°C° 0 mm 3 mps 756 mmHg 47%
    05:00 +12°C° 0 mm 3 mps 756 mmHg 49%
    06:00 +14°C° 0 mm 3 mps 756 mmHg 45%
    07:00 +17°C° 0 mm 3 mps 756 mmHg 41%
    08:00 +19°C° 0 mm 3 mps 757 mmHg 38%
    09:00 +20°C° 0 mm 3 mps 756 mmHg 33%
    10:00 +21°C° 0 mm 4 mps 756 mmHg 29%
    11:00 +22°C° 0 mm 4 mps 756 mmHg 25%
    12:00 +22°C° 0 mm 4 mps 756 mmHg 24%
    13:00 +23°C° 0 mm 4 mps 755 mmHg 23%
    14:00 +23°C° 0 mm 4 mps 755 mmHg 22%
    15:00 +21°C° 0 mm 5 mps 755 mmHg 32%
    16:00 +17°C° 0 mm 5 mps 755 mmHg 42%
    17:00 +15°C° 0 mm 5 mps 756 mmHg 52%
    18:00 +15°C° 0 mm 5 mps 756 mmHg 53%
    19:00 +15°C° 0 mm 6 mps 757 mmHg 54%
    20:00 +14°C° 0 mm 6 mps 757 mmHg 55%
    21:00 +14°C° 0 mm 6 mps 757 mmHg 55%
    22:00 +13°C° 0 mm 6 mps 758 mmHg 56%
    23:00 +13°C° 0 mm 5 mps 758 mmHg 56%

    Pasado mañana, 16 Diciembre, Lunes

    Tiempo Temperatura Precipitaciones Viento Presión Humedad
    00:00 +12°C° 0 mm 5 mps 758 mmHg 56%
    01:00 +12°C° 0 mm 5 mps 758 mmHg 56%
    02:00 +12°C° 0 mm 5 mps 758 mmHg 56%
    03:00 +12°C° 0 mm 5 mps 758 mmHg 58%
    04:00 +12°C° 0 mm 4 mps 758 mmHg 60%
    05:00 +11°C° 0 mm 4 mps 758 mmHg 61%
    06:00 +13°C° 0 mm 4 mps 758 mmHg 54%
    07:00 +15°C° 0 mm 5 mps 759 mmHg 47%
    08:00 +17°C° 0 mm 5 mps 759 mmHg 39%
    09:00 +19°C° 0 mm 6 mps 759 mmHg 36%
    10:00 +21°C° 0 mm 6 mps 759 mmHg 32%
    11:00 +22°C° 0 mm 7 mps 759 mmHg 28%
    12:00 +22°C° 0 mm 6 mps 759 mmHg 27%
    13:00 +23°C° 0 mm 6 mps 759 mmHg 27%
    14:00 +23°C° 0 mm 6 mps 758 mmHg 26%
    15:00 +21°C° 0 mm 6 mps 758 mmHg 29%
    16:00 +20°C° 0 mm 5 mps 758 mmHg 32%
    17:00 +17°C° 0 mm 5 mps 759 mmHg 35%
    18:00 +16°C° 0 mm 5 mps 759 mmHg 37%
    19:00 +16°C° 0 mm 6 mps 759 mmHg 38%
    20:00 +15°C° 0 mm 6 mps 760 mmHg 39%
    21:00 +15°C° 0 mm 6 mps 760 mmHg 41%
    22:00 +14°C° 0 mm 6 mps 760 mmHg 43%
    23:00 +14°C° 0 mm 5 mps 760 mmHg 45%

    17 Diciembre, Martes

    Tiempo Temperatura Precipitaciones Viento Presión Humedad
    00:00 +14°C° 0 mm 5 mps 760 mmHg 45%
    01:00 +13°C° 0 mm 5 mps 760 mmHg 45%
    02:00 +13°C° 0 mm 5 mps 760 mmHg 44%
    03:00 +12°C° 0 mm 5 mps 760 mmHg 45%
    04:00 +12°C° 0 mm 5 mps 760 mmHg 46%
    05:00 +10°C° 0 mm 5 mps 760 mmHg 46%
    06:00 +13°C° 0 mm 5 mps 761 mmHg 40%
    07:00 +15°C° 0 mm 5 mps 761 mmHg 34%
    08:00 +17°C° 0 mm 5 mps 761 mmHg 27%
    09:00 +20°C° 0 mm 5 mps 761 mmHg 27%
    10:00 +21°C° 0 mm 4 mps 761 mmHg 27%
    11:00 +22°C° 0 mm 4 mps 761 mmHg 26%
    12:00 +22°C° 0 mm 4 mps 761 mmHg 29%
    13:00 +23°C° 0 mm 4 mps 760 mmHg 31%
    14:00 +24°C° 0 mm 3 mps 760 mmHg 34%
    15:00 +21°C° 0 mm 4 mps 760 mmHg 41%
    16:00 +19°C° 0 mm 4 mps 761 mmHg 48%
    17:00 +16°C° 0 mm 5 mps 761 mmHg 55%
    18:00 +17°C° 0 mm 4 mps 761 mmHg 57%
    19:00 +15°C° 0 mm 4 mps 762 mmHg 58%
    20:00 +14°C° 0 mm 4 mps 762 mmHg 60%
    21:00 +14°C° 0 mm 4 mps 762 mmHg 58%
    22:00 +14°C° 0 mm 5 mps 762 mmHg 57%
    23:00 +14°C° 0 mm 5 mps 762 mmHg 55%

    18 Diciembre, Miércoles

    Tiempo Temperatura Precipitaciones Viento Presión Humedad
    00:00 +14°C° 0 mm 5 mps 762 mmHg 54%
    01:00 +13°C° 0 mm 5 mps 762 mmHg 54%
    02:00 +13°C° 0 mm 6 mps 762 mmHg 53%
    03:00 +13°C° 0 mm 5 mps 762 mmHg 53%
    04:00 +13°C° 0 mm 5 mps 762 mmHg 53%
    05:00 +12°C° 0 mm 5 mps 762 mmHg 53%
    06:00 +14°C° 0 mm 5 mps 763 mmHg 47%
    07:00 +16°C° 0 mm 5 mps 763 mmHg 41%
    08:00 +19°C° 0 mm 5 mps 764 mmHg 34%
    09:00 +20°C° 0 mm 5 mps 763 mmHg 33%
    10:00 +21°C° 0 mm 5 mps 763 mmHg 31%
    11:00 +22°C° 0 mm 6 mps 763 mmHg 29%
    12:00 +23°C° 0 mm 5 mps 763 mmHg 31%
    13:00 +23°C° 0 mm 4 mps 762 mmHg 32%
    14:00 +24°C° 0 mm 3 mps 762 mmHg 34%
    15:00 +21°C° 0 mm 3 mps 762 mmHg 42%
    16:00 +18°C° 0 mm 2 mps 762 mmHg 49%
    17:00 +16°C° 0 mm 2 mps 762 mmHg 57%
    18:00 +16°C° 0 mm 2 mps 762 mmHg 53%
    19:00 +14°C° 0 mm 3 mps 762 mmHg 49%
    20:00 +14°C° 0 mm 3 mps 763 mmHg 45%
    21:00 +14°C° 0 mm 3 mps 763 mmHg 42%
    22:00 +14°C° 0 mm 4 mps 763 mmHg 40%
    23:00 +13°C° 0 mm 4 mps 763 mmHg 38%

    19 Diciembre, Jueves

    Tiempo Temperatura Precipitaciones Viento Presión Humedad
    00:00 +13°C° 0 mm 4 mps 763 mmHg 39%
    01:00 +13°C° 0 mm 5 mps 763 mmHg 40%
    02:00 +13°C° 0 mm 5 mps 763 mmHg 40%
    03:00 +12°C° 0 mm 5 mps 763 mmHg 44%
    04:00 +12°C° 0 mm 5 mps 762 mmHg 49%
    05:00 +10°C° 0 mm 5 mps 762 mmHg 53%
    06:00 +13°C° 0 mm 4 mps 763 mmHg 45%
    07:00 +15°C° 0 mm 4 mps 763 mmHg 37%
    08:00 +19°C° 0 mm 4 mps 763 mmHg 29%
    09:00 +20°C° 0 mm 4 mps 763 mmHg 27%
    10:00 +21°C° 0 mm 4 mps 763 mmHg 26%
    11:00 +22°C° 0 mm 4 mps 763 mmHg 25%
    12:00 +22°C° 0 mm 4 mps 762 mmHg 26%
    13:00 +24°C° 0 mm 3 mps 762 mmHg 28%
    14:00 +24°C° 0 mm 3 mps 761 mmHg 29%
    15:00 +20°C° 0 mm 3 mps 761 mmHg 37%
    16:00 +18°C° 0 mm 2 mps 761 mmHg 45%
    17:00 +16°C° 0 mm 2 mps 761 mmHg 53%
    18:00 +15°C° 0 mm 2 mps 761 mmHg 51%
    19:00 +14°C° 0 mm 3 mps 761 mmHg 49%
    20:00 +13°C° 0 mm 3 mps 761 mmHg 47%
    21:00 +13°C° 0 mm 3 mps 761 mmHg 46%
    22:00 +13°C° 0 mm 3 mps 761 mmHg 46%
    23:00 +14°C° 0 mm 2 mps 761 mmHg 45%
    Mostrar más